Location: Pine Creek
(45.5072°N, 110.5649°W)
Time: 17:18:47
(UTC+00:00)

Envisat - Pass Details

Date: 20 January 2022
Orbit: 764 x 765 km, 98.2° (Epoch: 19 May)

Event Time Altitude Azimuth Distance (km) Brightness Sun altitude
Rises 11:21:34 0° 24° (NNE) 3,240 6.6 -37.1°
Reaches altitude 10° 11:24:16 10° 38° (NE) 2,309 5.9 -36.6°
Maximum altitude 11:28:28 25° 93° (E) 1,494 5.0 -35.9°
Drops below altitude 10° 11:32:38 10° 149° (SSE) 2,296 5.7 -35.1°
Sets 11:35:17 0° 162° (SSE) 3,217 6.4 -34.7°
